Dewpoint
37 36 35 36 35 35 36 37 38 38 38 38 37 38 41 43 43 44 45 44 43 43
36 36 35 35 35 35 34 34 34 36 36 37 37 36 38 40 40 41 42 43 41 40
34 34 33 32 31 30 28 27 27 27 28 29 32 32 35 37 38 38 39 39 38 37
34 31 29 27 25 24 24 24 25 26 26 27 29 28 29 32 34 34 35 35 34 34
33 28 25 22 23 23 22 22 23 24 25 25 27 28 27 29 30 31 31 32 31 31
30 25 24 23 24 23 22 20 21 22 24 25 26 28 25 26 26 26 28 29 29 28
30 25 24 24 24 23 22 21 20 21 24 26 27 27 26 25 25 26 26 28 28 29
31 25 24 24 23 21 20 20 22 22 25 27 26 29 29 27 25 25 24 27 27 28
30 25 24 24 23 21 20 19 19 21 26 28 27 30 30 29 26 26 26 26 27 26
30 25 24 24 23 21 19 19 20 21 24 26 28 29 30 29 26 26 26 25 24 24
30 25 24 24 23 20 18 18 21 21 22 25 27 31 28 27 26 25 24 23 22 23
29 26 24 24 23 20 18 18 20 21 22 23 25 31 30 27 24 23 21 21 21 22
28 25 23 24 22 22 20 19 21 21 21 23 23 28 30 29 24 22 22 21 21 22
26 25 24 23 22 22 21 20 20 20 20 22 21 23 29 28 26 22 23 22 21 22
Wind_Speed
2 3 4 5 6 7 8 8 10 11 10 11 12 12 12 10 11 11 10 11 12 11
3 3 4 5 5 6 7 9 10 11 11 11 11 11 11 9 10 11 9 9 10 10
5 4 4 5 6 7 8 9 11 11 12 12 12 12 12 10 10 10 8 7 8 8
7 5 4 5 5 5 6 7 8 9 10 10 10 11 10 10 8 9 8 8 8 9
8 6 6 4 4 4 6 6 7 8 9 9 9 9 9 8 7 8 7 8 8 9
10 9 7 5 4 4 4 5 5 6 7 8 8 8 8 8 7 7 7 8 9 10
14 11 9 6 5 5 5 5 5 5 5 6 6 8 8 7 8 7 7 7 8 10
14 12 10 8 7 5 5 4 4 4 3 3 4 6 8 8 7 7 7 7 8 6
16 14 13 11 9 6 6 5 4 4 3 3 1 4 6 8 6 7 7 8 9 9
16 16 14 12 11 9 8 7 6 6 5 4 1 2 5 6 5 5 7 7 9 10
16 16 14 12 11 9 8 8 7 6 6 6 4 2 1 4 4 4 5 6 8 10
17 16 14 14 13 10 8 9 7 7 7 7 7 4 1 5 4 6 5 6 6 6
16 18 17 14 13 10 7 9 7 7 7 8 7 4 1 3 7 6 6 6 6 5
16 17 15 13 9 9 8 8 7 7 8 8 8 6 3 5 7 7 6 6 6 6
Wind_Direction
307 330 335 344 341 338 341 342 343 345 346 352 350 352 355 358 353 352 1 6 358 347
264 292 301 314 325 331 334 334 338 337 340 344 346 348 347 350 355 353 4 15 9 1
239 264 297 310 321 329 332 336 335 339 340 342 345 349 346 348 351 352 3 3 1 3
229 235 267 288 311 321 322 334 336 338 339 343 346 350 346 347 354 352 2 5 1 4
223 229 239 256 282 306 316 324 333 335 338 341 344 348 348 348 354 355 1 5 4 7
211 221 234 239 256 273 296 311 321 332 339 343 342 352 350 347 350 355 2 7 7 8
208 209 218 226 243 264 289 298 310 318 331 338 346 2 355 350 351 353 4 4 7 13
213 202 203 209 226 245 262 276 288 294 304 335 344 22 354 343 345 351 349 358 357 24
210 201 201 200 206 226 243 251 256 266 280 292 341 30 13 353 349 350 352 349 347 344
213 205 201 198 198 211 224 226 231 234 244 247 237 59 10 356 336 344 340 342 341 336
210 209 196 192 195 210 220 222 224 226 237 250 228 238 198 336 318 330 324 335 342 340
207 204 186 190 199 200 211 221 216 225 218 239 249 166 229 294 313 306 326 337 338 346
201 191 196 198 197 175 198 228 198 229 234 240 261 191 248 262 302 304 324 322 332 344
198 197 185 176 164 174 187 226 217 219 228 223 233 242 214 277 289 297 313 310 325 339